[[{"header":{"parameterUnit":"m.s-1","parameterCategory":1,"la1":30.2991,"la2":30.254,"lo1":-89.0895,"lo2":-89.0444,"dy":0.0017,"dx":0.0017,"nx":28,"ny":28,"refTime":"2025-03-23T09:00:00:Z","depth":0,"parameterNumber":2,"parameterNumberName":"U-component_of_WINDS"},"data":[0,0,0,0,0,0,0,0,0,0,0,0,0,0,0,0,0,0,0,0,0,0,0,0,0,0,0,0,0,0,0,0,0,0,0,0,0,0,0,0,0,0,0,0,0,0,0,0,0,0,0,0,0,0,0,0,0,0,0.9976,0.9976,0,0.9963,0.9962,0.9962,0.9962,0.9962,0.9962,0.9962,0.9949,0.9949,0.9948,0,0,0,0,0,0,0,0,0,0,0,0,0,1.0003,1.0002,0.9976,0.9976,0.9976,0.9963,0.9962,0.9962,0.9962,0.9962,0.9962,0.9963,0.9949,0.9949,0.9948,0,0,0,0,0,0,0,0,0,0,0,0,0,0.999,1.0002,0.9976,0.9974,0.9974,0.9963,0.9962,0.9962,0.9962,0.9962,0.9962,0.9963,0.995,0.9949,0.9948,0.9938,0,0,0.9946,0.9945,0,0,0,0,0,0,0,0,0.9991,0.9989,0.9974,0.9974,0.9974,0.9964,0.9967,0.9954,0.9962,0.9966,0.9962,0.9963,0.9954,0.9953,0.995,0.9938,0.9937,0.9946,0.9945,0.9945,0.9945,0,0,0,0,0,0,0,0.9992,0.999,0.9971,0.9974,0.9974,0.9974,0.9973,0.9965,0.9959,0.9966,0.9966,0.9964,0.9954,0.9951,0.9949,0.9937,0.9946,0.9945,0.9944,0.9944,0.9918,0.9918,0,0,0,0,0,0,0.9993,0.9991,0.9971,0.997,0.9983,0.9973,0.9972,0.9967,0.9959,0.9958,0.9964,0.9964,0.9952,0.995,0.9949,0.9938,0.9945,0.9944,0.9944,0.9918,0.9918,0.9917,0,0,0,0,0,0,0.9994,0.9991,0.9972,0.998,0.9978,0.9973,0.9967,0.9967,0.9963,0.9958,0.9957,0.9962,0.9952,0.995,0.9941,0.9937,0.9944,0.9943,0.9918,0.9918,0.9918,0.9915,0,0,0,0,0,0,0.9994,0.9992,0.9987,0.998,0.9978,0.9964,0.9967,0.9966,0.9962,0.9962,0.9955,0.9954,0.9952,0.9942,0.9941,0.9937,0.9942,0.9919,0.9918,0.9918,0.9916,0.9915,0.9914,0,0,0,0,0,0.9995,0.9987,0.9987,0.9985,0.9972,0.9963,0.9962,0.9959,0.9962,0.9958,0.9954,0.9954,0.9938,0.9942,0.9939,0.9935,0.9919,0.9918,0.9918,0.9916,0.9915,0.9914,0,0,0,0,0,0,0.9993,0.9986,0.9986,0.9975,0.997,0.9963,0.9958,0.9958,0.9952,0.9953,0.995,0.9948,0.994,0.9937,0.994,0.9926,0.9929,0.9928,0.9928,0.9927,0.9927,0.9928,0.9942,0,0,0,0,0,0.9992,0.9985,0.9979,0.997,0.9967,0.9963,0.9959,0.9958,0.9953,0.995,0.9946,0.9941,0.9935,0.9931,0.9925,0.9915,0.9914,0.9912,0.9911,0.991,0.9909,0.9905,0.9904,0.9916,0.9916,0.9916,0,0,0.9988,0.9983,0.9979,0.997,0.9965,0.9959,0.9961,0.9954,0.995,0.9949,0.9941,0.9938,0.9932,0.9923,0.9919,0.992,0.9906,0.991,0.9909,0.9909,0.9905,0.9903,0.9902,0.9915,0.9915,0.9915,0,0,0.9978,0.9974,0.9966,0.9962,0.9956,0.9954,0.9952,0.9946,0.9944,0.9935,0.9935,0.993,0.9919,0.9916,0.9912,0.9903,0.9903,0.9901,0.9897,0.9893,0.9892,0.9891,0.9889,0.9887,0.99,0.99,0.99,0,0.9974,0.9964,0.9962,0.9955,0.9952,0.9952,0.9944,0.9941,0.9933,0.9931,0.9932,0.992,0.9916,0.9906,0.9904,0.9901,0.99,0.9902,0.9892,0.9891,0.9891,0.9888,0.9887,0.99,0.99,0.99,0.99,0,0.9961,0.9954,0.9949,0.9942,0.9937,0.993,0.9928,0.9924,0.9923,0.9921,0.9913,0.9908,0.9902,0.99,0.9899,0.9891,0.9892,0.9893,0.9896,0.9889,0.9887,0.9886,0.99,0.99,0.99,0.99,0,0,0.9948,0.9941,0.9939,0.9937,0.993,0.9925,0.9919,0.9913,0.991,0.9905,0.99,0.9892,0.9893,0.9889,0.9888,0.9885,0.9878,0.9886,0.9886,0.9885,0.987,0.9869,0.9868,0.9879,0.9878,0.9878,0.9871,0,0.9938,0.9926,0.9925,0.9915,0.9909,0.991,0.9904,0.99,0.9898,0.9894,0.9892,0.9886,0.9888,0.9886,0.9882,0.988,0.9875,0.988,0.9874,0.9874,0.9876,0.9867,0.9866,0.9859,0.987,0.987,0.9869,0,0.9924,0.992,0.9909,0.9905,0.9903,0.9898,0.9893,0.9888,0.9884,0.9883,0.988,0.9879,0.9873,0.9877,0.9869,0.9873,0.987,0.9869,0.9868,0.9868,0.9871,0.9866,0.9856,0.9856,0.9868,0.9868,0.9868,0,0.9917,0.9908,0.9901,0.9899,0.9893,0.989,0.9888,0.9884,0.9881,0.9877,0.9875,0.987,0.9868,0.9864,0.9863,0.9865,0.9856,0.9858,0.9855,0.9855,0.9853,0.9853,0.9843,0.9851,0.9851,0.9851,0.9851,0,0.9906,0.99,0.9898,0.9893,0.9887,0.9886,0.9879,0.9877,0.9874,0.987,0.987,0.9866,0.9864,0.986,0.9859,0.9854,0.9852,0.9852,0.9852,0.9852,0.9852,0.985,0.9851,0.9851,0.9851,0.9851,0.9851,0,0.9897,0.9895,0.9888,0.9884,0.9883,0.9878,0.9875,0.9871,0.987,0.9864,0.9863,0.9861,0.9856,0.9855,0.9849,0.9848,0.9842,0.9842,0.9843,0.9843,0.984,0.984,0.9828,0.9827,0.9836,0.9836,0.9836,0,0.989,0.9885,0.9881,0.9879,0.9876,0.9872,0.9869,0.9868,0.9865,0.9861,0.9858,0.9853,0.9849,0.9842,0.984,0.9836,0.9836,0.9833,0.9836,0.9837,0.9837,0.9837,0.9837,0.9832,0.9832,0.9832,0.9832,0,0.9878,0.9878,0.9874,0.987,0.9866,0.9863,0.986,0.9857,0.9856,0.9853,0.9848,0.9846,0.984,0.9836,0.9832,0.983,0.9831,0.9831,0.983,0.983,0.9831,0.9831,0.9842,0.9831,0.9831,0.9831,0.9831,0.9831,0.987,0.9866,0.9863,0.9859,0.9857,0.9854,0.9851,0.9849,0.9845,0.9841,0.9841,0.9836,0.9833,0.9828,0.9826,0.9823,0.9824,0.9823,0.9822,0.9822,0.9822,0.9832,0.9822,0.9822,0.9822,0.9822,0.9822,0,0.9859,0.9857,0.9853,0.9849,0.9846,0.9847,0.9844,0.9842,0.9837,0.9835,0.9832,0.9827,0.9823,0.9821,0.9818,0.9816,0.9816,0.9815,0.9815,0.9815,0.9821,0.9822,0.9815,0.9815,0.9815,0.9815,0.9815,0.9815,0.9853,0.9847,0.9846,0.984,0.9838,0.9834,0.9832,0.983,0.9828,0.9823,0.982,0.9819,0.9817,0.9813,0.981,0.981,0.9809,0.9808,0.9807,0.9813,0.9814,0.9815,0.9816,0.9807,0.9807,0.9801,0.9801,0.9801]},{"header":{"parameterUnit":"m.s-1","parameterCategory":1,"la1":30.2991,"la2":30.254,"lo1":-89.0895,"lo2":-89.0444,"dy":0.0017,"dx":0.0017,"nx":28,"ny":28,"refTime":"2025-03-23T09:00:00:Z","depth":0,"parameterNumber":3,"parameterNumberName":"V-component_of_WINDS"},"data":[0,0,0,0,0,0,0,0,0,0,0,0,0,0,0,0,0,0,0,0,0,0,0,0,0,0,0,0,0,0,0,0,0,0,0,0,0,0,0,0,0,0,0,0,0,0,0,0,0,0,0,0,0,0,0,0,0,0,1.8626,1.8627,0,1.8642,1.8642,1.8642,1.8662,1.8662,1.8662,1.8662,1.8676,1.8676,1.8676,0,0,0,0,0,0,0,0,0,0,0,0,0,1.8612,1.8613,1.8626,1.8627,1.8627,1.8642,1.8642,1.8642,1.8661,1.8662,1.8662,1.8663,1.8676,1.8676,1.8676,0,0,0,0,0,0,0,0,0,0,0,0,0,1.8622,1.8613,1.8626,1.8638,1.8639,1.8642,1.8642,1.8642,1.8661,1.8662,1.8662,1.8663,1.8676,1.8676,1.8676,1.8667,0,0,1.8676,1.8677,0,0,0,0,0,0,0,0,1.8622,1.8623,1.8636,1.8637,1.8639,1.865,1.8642,1.8651,1.8661,1.8653,1.8662,1.8663,1.8667,1.8668,1.867,1.8668,1.8668,1.8676,1.8677,1.8677,1.8677,0,0,0,0,0,0,0,1.8621,1.8622,1.8632,1.8636,1.8638,1.8642,1.8644,1.8644,1.8657,1.8654,1.8655,1.8657,1.8668,1.8669,1.867,1.8669,1.8676,1.8677,1.8677,1.8677,1.8661,1.8661,0,0,0,0,0,0,1.8619,1.8621,1.8632,1.8633,1.8631,1.8642,1.8644,1.8646,1.8657,1.8659,1.8656,1.8658,1.8669,1.867,1.8671,1.8661,1.8677,1.8677,1.8677,1.8662,1.8661,1.8661,0,0,0,0,0,0,1.8618,1.8619,1.8631,1.8628,1.8629,1.8642,1.8644,1.8646,1.8648,1.8659,1.8661,1.8656,1.8669,1.867,1.8668,1.8662,1.8677,1.8677,1.8662,1.8662,1.8661,1.8643,0,0,0,0,0,0,1.8618,1.8619,1.8616,1.8627,1.863,1.8629,1.8643,1.8646,1.8648,1.865,1.8659,1.8661,1.867,1.8668,1.8668,1.8663,1.8677,1.8663,1.8662,1.8661,1.8644,1.8641,1.8639,0,0,0,0,0,1.8617,1.861,1.8616,1.8617,1.8626,1.8629,1.863,1.8641,1.8648,1.8645,1.8652,1.8661,1.8663,1.8668,1.8668,1.8662,1.8663,1.8662,1.8661,1.8645,1.8642,1.8639,0,0,0,0,0,0,1.8596,1.8611,1.8618,1.8614,1.862,1.8632,1.8628,1.8637,1.864,1.8642,1.8654,1.8656,1.8653,1.8657,1.8662,1.8655,1.8664,1.8663,1.8652,1.8649,1.8647,1.8646,1.8677,0,0,0,0,0,1.8591,1.8593,1.8605,1.8601,1.8603,1.8615,1.8617,1.8625,1.8631,1.8633,1.8641,1.8646,1.8648,1.8649,1.8651,1.8645,1.8647,1.8641,1.8639,1.8637,1.8636,1.8633,1.8631,1.8657,1.8657,1.8657,0,0,1.858,1.8589,1.8589,1.8597,1.8602,1.8603,1.8617,1.8617,1.8618,1.8633,1.8632,1.8638,1.8644,1.864,1.8639,1.8644,1.8629,1.8635,1.8634,1.8634,1.8632,1.8629,1.8627,1.8657,1.8657,1.8657,0,0,1.8562,1.8568,1.8565,1.8571,1.858,1.8588,1.8587,1.8598,1.8603,1.8602,1.8614,1.8614,1.8617,1.8622,1.8624,1.8609,1.8617,1.8609,1.8597,1.8595,1.8593,1.8591,1.8585,1.8583,1.8608,1.8608,1.8608,0,1.8547,1.8549,1.8562,1.8562,1.8565,1.858,1.8578,1.8582,1.8591,1.8592,1.8598,1.8603,1.8609,1.8606,1.8602,1.8604,1.8604,1.8608,1.8592,1.859,1.8589,1.8584,1.8582,1.8607,1.8607,1.8607,1.8607,0,1.8531,1.8533,1.8529,1.8538,1.8541,1.8539,1.8552,1.8553,1.8561,1.8569,1.8568,1.8576,1.858,1.858,1.8587,1.8579,1.8582,1.859,1.86,1.8585,1.8581,1.8579,1.8606,1.8606,1.8606,1.8607,0,0,1.8498,1.8516,1.8514,1.8519,1.853,1.8532,1.8531,1.8536,1.8537,1.8543,1.8542,1.8545,1.8553,1.8556,1.8564,1.8562,1.855,1.857,1.857,1.8566,1.8541,1.8535,1.8533,1.8555,1.8555,1.8555,1.854,0,1.8481,1.8482,1.8494,1.8491,1.8492,1.8507,1.8507,1.8514,1.8521,1.8523,1.8531,1.8533,1.8543,1.8545,1.8543,1.8551,1.8545,1.8553,1.8555,1.8555,1.8553,1.853,1.8524,1.851,1.8539,1.8538,1.8538,0,1.8461,1.8467,1.8464,1.8477,1.8478,1.8477,1.8484,1.8486,1.8494,1.85,1.8504,1.8514,1.8513,1.8523,1.8524,1.8529,1.853,1.8535,1.8534,1.8535,1.8545,1.853,1.8505,1.8503,1.8536,1.8536,1.8536,0,1.8438,1.8445,1.8445,1.8448,1.8463,1.8462,1.8468,1.8476,1.8479,1.8485,1.8487,1.8492,1.8494,1.8498,1.8509,1.8515,1.8508,1.8518,1.8512,1.8512,1.8509,1.8509,1.8485,1.8511,1.8511,1.8511,1.8511,0,1.8418,1.8415,1.8434,1.8434,1.8432,1.8446,1.8444,1.8451,1.8459,1.846,1.8473,1.8474,1.8488,1.849,1.8499,1.8498,1.8499,1.8503,1.8505,1.8502,1.8501,1.8503,1.8504,1.851,1.851,1.851,1.8511,0,1.8391,1.8403,1.8404,1.8418,1.8422,1.842,1.8432,1.8432,1.8441,1.8442,1.8443,1.8456,1.846,1.8471,1.8477,1.8483,1.8479,1.8484,1.8477,1.8478,1.8471,1.8472,1.8447,1.8444,1.8472,1.8471,1.8471,0,1.8377,1.8375,1.839,1.8392,1.8398,1.8401,1.8405,1.8419,1.8422,1.8432,1.8431,1.8435,1.844,1.8445,1.8455,1.8459,1.8464,1.8455,1.8465,1.8461,1.8464,1.8464,1.8464,1.8452,1.8452,1.8452,1.8452,0,1.8351,1.8357,1.8362,1.8369,1.8373,1.8379,1.8386,1.8387,1.8403,1.8406,1.841,1.8414,1.8421,1.8425,1.8432,1.8437,1.8447,1.8449,1.8447,1.8444,1.844,1.8442,1.8471,1.8449,1.8449,1.8449,1.8449,1.845,1.833,1.833,1.834,1.8346,1.8353,1.8359,1.836,1.837,1.8374,1.8381,1.8389,1.8393,1.8402,1.8412,1.8417,1.842,1.8425,1.8423,1.8422,1.8422,1.842,1.844,1.8421,1.8421,1.8421,1.8421,1.8421,0,1.8304,1.8313,1.8317,1.8327,1.8331,1.8341,1.835,1.8352,1.8355,1.8363,1.8368,1.8373,1.8378,1.8389,1.8395,1.8395,1.84,1.8396,1.8396,1.8397,1.8415,1.8416,1.8392,1.8392,1.8392,1.8392,1.8392,1.8392,1.8292,1.8292,1.8301,1.8305,1.8313,1.8318,1.8322,1.8328,1.8334,1.834,1.8344,1.8352,1.8361,1.8368,1.8373,1.8376,1.8377,1.8372,1.8377,1.8393,1.8396,1.8398,1.8399,1.8373,1.8373,1.8359,1.8359,1.8359]}]]